Location: ????????
(56.0167°N, 38.0333°E)
Time: 12:45:00
(UTC+00:00)

Cosmos 2278 - Pass Details

Date: 19 May 2025
Orbit: 839 x 850 km, 71.1° (Epoch: 19 June)

Event Time Altitude Azimuth Distance (km) Brightness Sun altitude
Rises 19:39:39 0° 324° (NW) 3,408 8.8 -10.9°
Reaches altitude 10° 19:42:08 10° 328° (NNW) 2,469 7.7 -11.0°
Maximum altitude 19:47:47 66° 51° (NE) 918 4.0 -11.3°
Enters shadow 19:52:55 12° 133° (SE) 2,285 5.4 -11.6°
